2023/02/18 00:00:00,29.2, 2.2
2023/02/18 00:10:00,29.2, 2.4
2023/02/18 00:20:00,29.0, 3.4
2023/02/18 00:30:00,28.9, 3.4
2023/02/18 00:40:00,28.9, 2.9
2023/02/18 00:50:00,28.8, 2.9
2023/02/18 01:00:00,28.7, 3.7
2023/02/18 01:10:00,28.6, 3.5
2023/02/18 01:20:00,28.6, 3.8
2023/02/18 01:30:00,28.7, 4.2
2023/02/18 01:40:00,28.7, 3.7
2023/02/18 01:50:00,28.7, 4.1
2023/02/18 02:00:00,28.7, 4.6
2023/02/18 02:10:00,28.5, 4.5
2023/02/18 02:20:00,28.5, 4.8
2023/02/18 02:30:00,28.5, 4.5
2023/02/18 02:40:00,28.5, 4.6
2023/02/18 02:50:00,28.4, 5.4
2023/02/18 03:00:00,28.1, 4.8
2023/02/18 03:10:00,28.1, 5.1
2023/02/18 03:20:00,28.2, 5.1
2023/02/18 03:30:00,28.3, 4.0
2023/02/18 03:40:00,28.3, 4.2
2023/02/18 03:50:00,28.6, 4.2
2023/02/18 04:00:00,28.6, 3.9
2023/02/18 04:10:00,28.6, 3.3
2023/02/18 04:20:00,28.5, 3.6
2023/02/18 04:30:00,28.3, 4.0
2023/02/18 04:40:00,28.2, 3.9
2023/02/18 04:50:00,28.1, 3.5
2023/02/18 05:00:00,28.1, 3.7
2023/02/18 05:10:00,28.1, 3.2
2023/02/18 05:20:00,28.1, 4.1
2023/02/18 05:30:00,27.9, 3.7
2023/02/18 05:40:00,27.6, 3.4
2023/02/18 05:50:00,27.6, 2.9
2023/02/18 06:00:00,27.7, 3.0
2023/02/18 06:10:00,27.6, 2.9
2023/02/18 06:20:00,27.7, 2.6
2023/02/18 06:30:00,27.7, 2.6
2023/02/18 06:40:00,27.8, 2.5
2023/02/18 06:50:00,27.7, 2.8
2023/02/18 07:00:00,27.7, 2.8
2023/02/18 07:10:00,27.7, 2.6
2023/02/18 07:20:00,27.8, 2.8
2023/02/18 07:30:00,27.8, 3.0
2023/02/18 07:40:00,27.8, 2.8
2023/02/18 07:50:00,27.9, 3.0
2023/02/18 08:00:00,27.9, 3.3
2023/02/18 08:10:00,27.9, 3.5
2023/02/18 08:20:00,27.9, 3.9
2023/02/18 08:30:00,27.9, 4.4
2023/02/18 08:40:00,28.0, 4.9
2023/02/18 08:50:00,28.0, 5.2
2023/02/18 09:00:00,28.0, 4.6
2023/02/18 09:10:00,28.0, 4.6
2023/02/18 09:20:00,27.9, 5.4
2023/02/18 09:30:00,27.9, 5.8
2023/02/18 09:40:00,27.9, 5.3
2023/02/18 09:50:00,27.9, 6.0
2023/02/18 10:00:00,28.2, 6.0
2023/02/18 10:10:00,28.1, 5.9
2023/02/18 10:20:00,28.1, 6.4
2023/02/18 10:30:00,28.0, 6.4
2023/02/18 10:40:00,28.0, 5.8
2023/02/18 10:50:00,27.9, 5.4
2023/02/18 11:00:00,28.0, 5.0
2023/02/18 11:10:00,28.0, 5.3
2023/02/18 11:20:00,27.9, 5.0
2023/02/18 11:30:00,27.4, 5.7
2023/02/18 11:40:00,27.3, 5.5
2023/02/18 11:50:00,27.3, 5.3
2023/02/18 12:00:00,27.2, 5.4
2023/02/18 12:10:00,27.2, 5.1
2023/02/18 12:20:00,27.2, 5.4
2023/02/18 12:30:00,27.0, 5.7
2023/02/18 12:40:00,27.3, 6.5
2023/02/18 12:50:00,27.3, 6.2
2023/02/18 13:00:00,27.0, 6.3
2023/02/18 13:10:00,26.9, 6.7
2023/02/18 13:20:00,26.9, 7.1
2023/02/18 13:30:00,26.7, 7.0
2023/02/18 13:40:00,26.7, 7.4
2023/02/18 13:50:00,26.7, 7.3
2023/02/18 14:00:00,26.7, 6.7
2023/02/18 14:10:00,26.6, 6.8
2023/02/18 14:20:00,26.3, 7.2
2023/02/18 14:30:00,26.2, 7.4
2023/02/18 14:40:00,26.0, 7.4
2023/02/18 14:50:00,25.9, 7.2
2023/02/18 15:00:00,25.8, 7.3
2023/02/18 15:10:00,26.1, 7.4
2023/02/18 15:20:00,25.9, 7.0
2023/02/18 15:30:00,25.6, 7.5
2023/02/18 15:40:00,25.3, 7.1
2023/02/18 15:50:00,24.9, 7.4
2023/02/18 16:00:00,24.9, 7.3
2023/02/18 16:10:00,25.0, 7.4
2023/02/18 16:20:00,25.0, 7.5
2023/02/18 16:30:00,25.0, 6.8
2023/02/18 16:40:00,24.9, 7.1
2023/02/18 16:50:00,25.0, 7.1
2023/02/18 17:00:00,25.1, 7.2
2023/02/18 17:10:00,24.8, 7.4
2023/02/18 17:20:00,24.6, 7.4
2023/02/18 17:30:00,24.4, 8.1
2023/02/18 17:40:00,24.2, 7.8
2023/02/18 17:50:00,24.1, 6.9
2023/02/18 18:00:00,24.2, 6.6
2023/02/18 18:10:00,24.2, 6.7
2023/02/18 18:20:00,24.3, 6.9
2023/02/18 18:30:00,24.5, 6.7
2023/02/18 18:40:00,24.7, 6.8
2023/02/18 18:50:00,24.9, 6.3
2023/02/18 19:00:00,24.8, 6.5
2023/02/18 19:10:00,24.5, 6.5
2023/02/18 19:20:00,24.3, 6.5
2023/02/18 19:30:00,24.2, 6.3
2023/02/18 19:40:00,24.0, 6.4
2023/02/18 19:50:00,24.0, 6.6
2023/02/18 20:00:00,23.9, 6.5
2023/02/18 20:10:00,24.0, 6.5
2023/02/18 20:20:00,24.6, 6.6
2023/02/18 20:30:00,24.3, 6.7
2023/02/18 20:40:00,23.5, 6.8
2023/02/18 20:50:00,23.3, 7.0
2023/02/18 21:00:00,23.2, 7.1
2023/02/18 21:10:00,23.2, 6.8
2023/02/18 21:20:00,23.1, 7.0
2023/02/18 21:30:00,22.9, 6.8
2023/02/18 21:40:00,22.8, 6.6
2023/02/18 21:50:00,22.8, 7.1
2023/02/18 22:00:00,22.8, 7.1
2023/02/18 22:10:00,22.8, 7.2
2023/02/18 22:20:00,22.8, 7.0
2023/02/18 22:30:00,22.9, 7.2
2023/02/18 22:40:00,23.1, 7.2
2023/02/18 22:50:00,23.5, 7.3
2023/02/18 23:00:00,23.5, 7.5
2023/02/18 23:10:00,23.1, 7.3
2023/02/18 23:20:00,23.4, 7.9
2023/02/18 23:30:00,23.1, 8.4
2023/02/18 23:40:00,22.5, 8.1
2023/02/18 23:50:00,22.7, 8.7
